N305SD -KIWA

Flight info

Callsign N305SD
Flight time N/A
Altitude VFR
Route
Aircraft C208/L-VGD/C

Departure

Time N/A
Airport -

Arrival

Time 2026-04-19 19:57
Airport Mesa Gateway Airport (KIWA)
Time Latitude Longitude Altitude Speed Heading
2026-04-19 19:49 33.27472 -111.95533 3480 ft 135 kts 64°
2026-04-19 19:49 33.27950 -111.94558 3479 ft 136 kts 66°
2026-04-19 19:49 33.28430 -111.93577 3480 ft 137 kts 64°
2026-04-19 19:49 33.28910 -111.92600 3481 ft 137 kts 68°
2026-04-19 19:50 33.29389 -111.91620 3487 ft 138 kts 66°
2026-04-19 19:50 33.29877 -111.90623 3489 ft 139 kts 68°
2026-04-19 19:50 33.30362 -111.89631 3487 ft 137 kts 65°
2026-04-19 19:50 33.30829 -111.88671 3482 ft 134 kts 68°
2026-04-19 19:51 33.31267 -111.87677 3490 ft 137 kts 69°
2026-04-19 19:51 33.31702 -111.86661 3490 ft 136 kts 69°
2026-04-19 19:51 33.32138 -111.85659 3491 ft 135 kts 69°
2026-04-19 19:51 33.32567 -111.84652 3491 ft 136 kts 70°
2026-04-19 19:52 33.32993 -111.83629 3481 ft 138 kts 68°
2026-04-19 19:52 33.33418 -111.82593 3487 ft 139 kts 68°
2026-04-19 19:52 33.33841 -111.81553 3408 ft 141 kts 70°
2026-04-19 19:52 33.34282 -111.80475 3301 ft 147 kts 69°
2026-04-19 19:53 33.34728 -111.79363 3173 ft 148 kts 70°
2026-04-19 19:53 33.35181 -111.78259 3105 ft 148 kts 70°
2026-04-19 19:53 33.35616 -111.77157 2987 ft 145 kts 68°
2026-04-19 19:53 33.36026 -111.76090 2986 ft 138 kts 71°
2026-04-19 19:54 33.36422 -111.75054 2987 ft 135 kts 70°
2026-04-19 19:54 33.36659 -111.73989 2978 ft 130 kts 90°
2026-04-19 19:54 33.36378 -111.73043 2975 ft 118 kts 122°
2026-04-19 19:54 33.35902 -111.72299 2980 ft 109 kts 127°
2026-04-19 19:55 33.35411 -111.71631 2944 ft 103 kts 130°
2026-04-19 19:55 33.34903 -111.71047 2787 ft 104 kts 129°
2026-04-19 19:55 33.34393 -111.70405 2564 ft 107 kts 126°
2026-04-19 19:55 33.33870 -111.69730 2179 ft 113 kts 132°
2026-04-19 19:56 33.33312 -111.69078 1854 ft 110 kts 136°
2026-04-19 19:56 33.32780 -111.68461 1679 ft 104 kts 136°
2026-04-19 19:56 33.32274 -111.67876 1511 ft 98 kts 135°
2026-04-19 19:56 33.31818 -111.67347 1402 ft 84 kts 132°
2026-04-19 19:57 33.31462 -111.66932 1359 ft 47 kts 137°
2026-04-19 19:57 33.31261 -111.66696 1361 ft 29 kts 134°
2026-04-19 19:57 33.31142 -111.66671 1362 ft 21 kts 222°
2026-04-19 19:57 33.31120 -111.66696 1362 ft 0 kts 225°
2026-04-19 19:58 33.31119 -111.66697 1362 ft 1 kts 225°
2026-04-19 19:58 33.31081 -111.66748 1363 ft 7 kts 250°
2026-04-19 19:59 33.31129 -111.66824 1363 ft 15 kts 315°
2026-04-19 19:59 33.31209 -111.66916 1363 ft 13 kts 308°
2026-04-19 19:59 33.31182 -111.66964 1363 ft 4 kts 138°